Minneapolis Flying Cloud, MN

2:29 PM CST on January 19, 2018 (GMT -0600)
Flying Cloud

Weather History for KFCM - May, 2013

Change the Weather History Date:

Sunday, May 19, 2013

  Actual Average Record
Temperature  
Mean Temperature 72 °F -  
Max Temperature 80 °F 66 °F 87 °F (2012)
Min Temperature 64 °F 47 °F 36 °F (2000)
Cooling Degree Days 6    
Growing Degree Days 22 (Base 50)    
Moisture  
Dew Point 63 °F    
Average Humidity 84    
Maximum Humidity 100    
Minimum Humidity 60    
Precipitation  
Precipitation 0.79 in - - ()
Sea Level Pressure  
Sea Level Pressure 29.67 in    
Wind  
Wind Speed 10 mph (SE)    
Max Wind Speed 20 mph    
Max Gust Speed 30 mph    
Visibility 7 miles    
Events Rain , Thunderstorm    
Averages and records for this station are not official NWS values.
T = Trace of Precipitation, MM = Missing Value Source: NWS Daily Summary

Daily Weather History Graph

Daily Weather History Graph

Search for Another Location

Airport or City:

Trip Planner

Search our weather history database for the weather conditions in past years. The results will help you decide how hot, cold, wet, or windy it might be!

Date:

Astronomy

May. 19, 2013 Rise Set
Actual Time 5:40 AM CDT 8:40 PM CDT
Civil Twilight 5:06 AM CDT 9:15 PM CDT
Nautical Twilight 4:21 AM CDT 9:59 PM CDT
Astronomical Twilight 3:29 AM CDT 10:52 PM CDT
Moon 2:31 PM CDT 2:20 AM CDT
Length of Visible Light 16h 09m
Length of Day
14h 59m
Waxing Gibbous, 65% of the Moon is Illuminated
May 19
Waxing Gibbous
May 24
Full
May 31
Last Quarter
Jun 8
New
Jun 16
First Quarter

Hourly Weather History & Observations

Time (CDT) Temp. Dew Point Humidity Pressure Visibility Wind Dir Wind Speed Gust Speed Precip Events Conditions
12:53 AM 69.1 °F 62.1 °F 78% 29.77 in 9.0 mi SE 9.2 mph - N/A   Clear
1:53 AM 69.1 °F 62.1 °F 78% 29.77 in 9.0 mi SE 8.1 mph - N/A   Clear
2:53 AM 69.1 °F 61.0 °F 75% 29.78 in 9.0 mi SE 8.1 mph - N/A   Partly Cloudy
3:53 AM 70.0 °F 61.0 °F 73% 29.77 in 10.0 mi SE 6.9 mph - N/A   Mostly Cloudy
4:53 AM 69.1 °F 61.0 °F 75% 29.72 in 10.0 mi ESE 10.4 mph - N/A   Partly Cloudy
5:53 AM 70.0 °F 61.0 °F 73% 29.71 in 10.0 mi ESE 15.0 mph 20.7 mph N/A   Overcast
6:06 AM 69.8 °F 60.8 °F 73% 29.77 in 9.0 mi SSE 13.8 mph - N/A Thunderstorm Overcast
6:23 AM 68.0 °F 62.6 °F 83% 29.78 in 2.5 mi South 12.7 mph 27.6 mph 0.15 in Rain , Thunderstorm Heavy Thunderstorms and Rain
6:31 AM 66.2 °F 62.6 °F 88% 29.77 in 5.0 mi SE 8.1 mph - 0.16 in Rain , Thunderstorm Light Thunderstorms and Rain
7:01 AM 66.2 °F 62.6 °F 88% 29.74 in 5.0 mi East 6.9 mph - 0.01 in Rain Light Rain
7:17 AM 64.4 °F 62.6 °F 94% 29.70 in 2.5 mi NE 11.5 mph - 0.02 in Rain , Thunderstorm Light Thunderstorms and Rain
7:28 AM 64.4 °F 62.6 °F 94% 29.65 in 4.0 mi ENE 15.0 mph - 0.04 in Rain , Thunderstorm Light Thunderstorms and Rain
7:37 AM 64.4 °F 62.6 °F 94% 29.63 in 5.0 mi ENE 16.1 mph - 0.04 in Rain Light Rain
7:53 AM 66.0 °F 62.1 °F 87% 29.61 in 5.0 mi ENE 15.0 mph 24.2 mph 0.04 in   Partly Cloudy
8:33 AM 66.2 °F 62.6 °F 88% 29.73 in 5.0 mi SSW 11.5 mph - N/A   Mostly Cloudy
8:43 AM 66.2 °F 62.6 °F 88% 29.74 in 6.0 mi South 8.1 mph - N/A   Overcast
8:53 AM 66.9 °F 62.1 °F 84% 29.73 in 6.0 mi South 12.7 mph - N/A   Haze
9:53 AM 69.1 °F 64.0 °F 84% 29.71 in 6.0 mi SE 8.1 mph - N/A   Haze
10:07 AM 69.8 °F 64.4 °F 83% 29.71 in 6.0 mi SE 6.9 mph - N/A   Haze
10:26 AM 69.8 °F 64.4 °F 83% 29.69 in 7.0 mi SE 9.2 mph - N/A   Scattered Clouds
10:46 AM 71.6 °F 64.4 °F 78% 29.68 in 8.0 mi ESE 9.2 mph - N/A   Mostly Cloudy
10:53 AM 72.0 °F 64.0 °F 76% 29.67 in 8.0 mi SE 10.4 mph - N/A   Mostly Cloudy
11:53 AM 78.1 °F 64.9 °F 64% 29.68 in 10.0 mi South 13.8 mph 21.9 mph N/A   Partly Cloudy
12:53 PM 78.1 °F 64.9 °F 64% 29.67 in 10.0 mi SSE 15.0 mph 18.4 mph N/A   Mostly Cloudy
2:53 PM 79.0 °F 64.0 °F 60% 29.62 in 10.0 mi South 15.0 mph - N/A   Scattered Clouds
3:41 PM 77.0 °F 66.2 °F 69% 29.63 in 10.0 mi SSW 6.9 mph - 0.01 in   Overcast
3:53 PM 75.0 °F 66.0 °F 73% 29.62 in 4.0 mi Variable 5.8 mph - 0.02 in Rain , Thunderstorm Light Rain
4:18 PM 71.6 °F 64.4 °F 78% 29.62 in 6.0 mi ENE 6.9 mph - 0.03 in Rain Light Rain
4:36 PM 69.8 °F 64.4 °F 83% 29.61 in 3.0 mi ENE 5.8 mph - 0.05 in Rain , Thunderstorm Light Thunderstorms and Rain
4:41 PM 69.8 °F 66.2 °F 88% 29.64 in 1.8 mi South 19.6 mph 29.9 mph 0.12 in Rain , Thunderstorm Thunderstorms and Rain
4:48 PM 66.2 °F 62.6 °F 88% 29.65 in 0.8 mi SSE 18.4 mph 29.9 mph 0.38 in Rain , Thunderstorm Heavy Thunderstorms and Rain
4:53 PM 66.0 °F 63.0 °F 90% 29.63 in 0.8 mi SE 8.1 mph 24.2 mph 0.53 in Rain , Thunderstorm Heavy Thunderstorms and Rain
4:59 PM 66.2 °F 64.4 °F 94% 29.63 in 1.2 mi South 4.6 mph - 0.06 in Rain , Thunderstorm Heavy Thunderstorms and Rain
5:06 PM 66.2 °F 64.4 °F 94% 29.63 in 2.0 mi SSW 4.6 mph - 0.10 in Rain , Thunderstorm Thunderstorms and Rain
5:13 PM 64.4 °F 64.4 °F 100% 29.62 in 3.0 mi Calm Calm - 0.11 in Rain , Thunderstorm Light Thunderstorms and Rain
5:25 PM 64.4 °F 62.6 °F 94% 29.62 in 3.0 mi East 8.1 mph - 0.15 in Rain Rain
5:53 PM 64.9 °F 63.0 °F 93% 29.64 in 10.0 mi SE 8.1 mph - 0.20 in Rain Light Rain
6:53 PM 66.0 °F 62.1 °F 87% 29.60 in 10.0 mi ESE 8.1 mph - 0.00 in   Overcast
7:53 PM 66.9 °F 64.0 °F 90% 29.60 in 10.0 mi ESE 5.8 mph - N/A   Clear
8:53 PM 66.0 °F 64.0 °F 93% 29.58 in 10.0 mi ESE 4.6 mph - N/A   Clear
9:53 PM 66.0 °F 64.0 °F 93% 29.58 in 10.0 mi Calm Calm - N/A   Mostly Cloudy
10:01 PM 66.2 °F 64.4 °F 94% 29.58 in 10.0 mi Calm Calm - N/A   Mostly Cloudy
10:53 PM 66.0 °F 64.0 °F 93% 29.54 in 10.0 mi East 5.8 mph - N/A   Clear
11:53 PM 66.0 °F 63.0 °F 90% 29.54 in 10.0 mi ESE 9.2 mph - 0.00 in Rain Light Rain